235P/LINEAR (2025)

Japanese version
Home page
Updated on January 10, 2025

---------------------------------------------------------------------

* Profile

* Orbital Elements

Epoch 2025 Dec. 31.0 TT = JDT 2461040.5
T 2025 Dec. 22.67919 TT                                 MPCW
q   1.9779717            (2000.0)            P               Q
n   0.15409589     Peri.  352.19684     -0.97610842     +0.20918739
a   3.4456832      Node   200.17085     -0.18901737     -0.95086862
e   0.4259566      Incl.    9.81187     -0.10716711     -0.22823126
P   6.40
From 215 observations 2002 Jan. 12-2018 May 19, mean residual 0".6.

* Finding Charts

* Magnitudes Graph

        m1 = 6.0 + 5 log d + 25.0 log r

---------------------------------------------------------------------

The orbital elements are published on M.P.E.C. 2018-K95.
The charts are made with StellaNavigator Ver.11 (AstroArts).
The magnitudes graphs are made with Comet for Windows.

---------------------------------------------------------------------

Copyright(C) Seiichi Yoshida (comet@aerith.net). All rights reserved.